Location: La Pernelle
(49.6188°N, 1.2999°W)
Time: 04:33:41
(UTC+00:00)

NOSS 3-2 (A) - Pass Details

Date: 19 October 2021
Orbit: 771 x 1437 km, 63.4° (Epoch: 21 November)

Event Time Altitude Azimuth Distance (km) Brightness Sun altitude
Rises 18:07:19 0° 286° (WNW) 3,551 8.0 -10.6°
Reaches altitude 10° 18:10:10 10° 300° (WNW) 2,705 6.8 -11.0°
Maximum altitude 18:15:27 26° 356° (N) 1,955 5.1 -11.9°
Drops below altitude 10° 18:21:27 10° 51° (NE) 3,107 5.7 -12.9°
Enters shadow 18:21:57 - 53° (NE) 3,253 5.8 -12.9°
